User: anonymous   Login
Location: Unspecified
(0.0000°N, 0.0000°E)
Time: 21:52:30
(UTC+00:00)
Language:

STARLINK-34527 - Orbit

View from above orbital plane
View from above orbital plane
View from above satellite
View from above satellite

Ground track
Ground track

The orbit is defined by the following mean orbital elements,

1 64482U          26145.63378575 +.00000000 +00000-0 +51419-3 0 00002
2 64482  53.1577 119.0623 0001849  78.7563 281.3645 15.30198163    00
Epoch (UTC): 25 May 2026 15:12:39
Eccentricity: 0.0001849
inclination: 53.1577°
perigee height: 474 km
apogee height: 476 km
right ascension of ascending node: 119.0623°
argument of perigee: 78.7563°
revolutions per day: 15.30198163
mean anomaly at epoch: 281.3645°

The dashed part of the orbit path shows where the satellite is in the earth's shadow,  

DLR